Location: Kunchanapalle
(16.4623°N, 80.6176°E)
Time: 17:23:43
(UTC+00:00)

ERS-2 - Pass Details

Date: 13 August 2020
Orbit: 494 x 498 km, 98.6° (Epoch: 19 September)

Event Time Altitude Azimuth Distance (km) Brightness Sun altitude
Exits shadow 23:25:30 22° 266° (W) 1,109 3.3 -13.6°
Drops below altitude 10° 23:28:09 10° 313° (NW) 1,687 4.5 -13.0°
Sets 23:30:32 0° 329° (NNW) 2,571 5.6 -12.5°
